TimeEST,TemperatureF,Dew PointF,Humidity,Sea Level PressureIn,VisibilityMPH,Wind Direction,Wind SpeedMPH,Gust SpeedMPH,PrecipitationIn,Events,Conditions,WindDirDegrees,DateUTC
12:52 AM,16.0,1.9,54,29.91,10.0,NW,11.5,-,N/A,,Clear,320,2014-01-21 05:52:00
1:52 AM,16.0,-0.0,49,29.95,10.0,NW,9.2,-,N/A,,Clear,320,2014-01-21 06:52:00
2:52 AM,14.0,-0.9,52,29.97,10.0,NW,12.7,19.6,N/A,,Clear,320,2014-01-21 07:52:00
3:52 AM,12.9,-2.0,51,29.97,10.0,WNW,11.5,-,N/A,,Clear,300,2014-01-21 08:52:00
4:52 AM,12.9,-2.0,51,29.98,10.0,NNW,9.2,-,N/A,,Clear,330,2014-01-21 09:52:00
5:52 AM,10.9,-2.0,56,30.02,10.0,North,5.8,-,N/A,,Clear,350,2014-01-21 10:52:00
6:52 AM,10.0,-2.9,56,30.02,10.0,North,8.1,-,N/A,,Clear,350,2014-01-21 11:52:00
7:52 AM,9.0,-4.0,56,30.03,10.0,NNW,5.8,-,N/A,,Scattered Clouds,330,2014-01-21 12:52:00
8:52 AM,10.0,-4.0,53,30.06,10.0,NE,5.8,-,N/A,,Partly Cloudy,40,2014-01-21 13:52:00
9:52 AM,10.0,-7.1,46,30.04,10.0,NW,9.2,-,N/A,,Overcast,320,2014-01-21 14:52:00
10:52 AM,10.9,-9.0,40,30.05,10.0,North,8.1,-,N/A,,Overcast,360,2014-01-21 15:52:00
11:52 AM,10.9,-6.0,47,30.05,10.0,NW,6.9,-,N/A,,Overcast,320,2014-01-21 16:52:00
12:52 PM,12.0,-5.1,46,30.04,10.0,NNW,6.9,-,N/A,,Overcast,340,2014-01-21 17:52:00
1:52 PM,12.0,-6.0,44,30.01,10.0,NNW,8.1,-,N/A,,Overcast,340,2014-01-21 18:52:00
2:52 PM,10.9,-6.0,47,29.95,10.0,North,13.8,-,N/A,,Overcast,350,2014-01-21 19:52:00
3:52 PM,10.0,-7.1,46,29.97,10.0,North,9.2,-,N/A,,Overcast,350,2014-01-21 20:52:00
4:52 PM,10.0,-7.1,46,29.98,10.0,NNW,12.7,-,N/A,,Overcast,340,2014-01-21 21:52:00
5:52 PM,9.0,-7.1,48,29.99,9.0,North,10.4,-,N/A,,Overcast,350,2014-01-21 22:52:00
6:26 PM,8.1,-2.0,64,29.96,2.5,North,6.9,-,0.00,Snow,Light Snow,350,2014-01-21 23:26:00
6:33 PM,8.1,-2.0,64,29.95,4.0,North,8.1,-,0.00,Snow,Light Snow,360,2014-01-21 23:33:00
6:52 PM,9.0,-2.0,61,29.98,5.0,North,8.1,-,0.00,Snow,Light Snow,10,2014-01-21 23:52:00
7:52 PM,9.0,-5.1,53,30.00,10.0,North,8.1,-,0.00,,Overcast,360,2014-01-22 00:52:00
8:38 PM,8.1,-0.9,67,29.96,2.5,North,9.2,-,0.00,Snow,Light Snow,10,2014-01-22 01:38:00
8:52 PM,8.1,-0.0,70,29.99,2.0,North,8.1,-,0.00,Snow,Light Snow,350,2014-01-22 01:52:00
8:59 PM,7.0,-0.0,73,29.95,1.5,North,10.4,-,0.00,Snow,Light Snow,360,2014-01-22 01:59:00
9:44 PM,7.0,1.0,77,29.95,2.5,North,10.4,-,0.00,Snow,Light Snow,350,2014-01-22 02:44:00
9:52 PM,7.0,-0.0,73,29.99,2.5,North,9.2,-,0.00,Snow,Light Snow,360,2014-01-22 02:52:00
10:52 PM,7.0,-0.0,73,29.96,2.0,North,8.1,-,0.00,Snow,Light Snow,360,2014-01-22 03:52:00
11:09 PM,7.0,-0.9,70,29.91,4.0,North,10.4,-,0.00,Snow,Light Snow,350,2014-01-22 04:09:00
11:24 PM,6.1,-2.0,69,29.90,9.0,North,8.1,-,0.00,,Overcast,360,2014-01-22 04:24:00
11:52 PM,6.1,-4.0,63,29.93,10.0,North,10.4,-,0.00,,Overcast,350,2014-01-22 04:52:00